AirNav   Everest Fuels
 
 609 users online  

C44 Toutant Airport
Putnam, Connecticut, USA

GOING TO PUTNAM?


FAA INFORMATION EFFECTIVE 25 FEBRUARY 2021

Location

FAA Identifier: C44
Lat/Long: 41-57-20.5000N 072-03-15.7000W
41-57.341667N 072-03.261667W
41.9556944,-72.0543611
(estimated)
Elevation: 770 ft. / 235 m (estimated)
Variation: 15W (1985)
From city: 6 miles NW of PUTNAM, CT
Time zone: UTC -5 (UTC -4 during Daylight Saving Time)
Zip code: 06282

Airport Operations

Airport use: Open to the public
Activation date: 01/1971
Control tower: no
ARTCC: BOSTON CENTER
FSS: BRIDGEPORT FLIGHT SERVICE STATION
NOTAMs facility: BDR (NOTAM-D service available)
Attendance: IREG
Wind indicator: yes
Segmented circle: no
Lights: FOR LGTS CALL 860-974-2099.

Airport Communications

CTAF: 122.9
WX AWOS-3 at LZD (11 nm SE): 119.125 (860-779-7251)
WX ASOS at IJD (14 nm SW): 133.675 (860-456-8839)

Nearby radio navigation aids

VOR radial/distance  VOR name  Freq  Var
PUTr284/9.4PUTNAM VOR/DME117.4014W
ORWr008/24.1NORWICH VOR/DME110.0014W
HFDr062/29.0HARTFORD VOR/DME114.9013W
PVDr310/31.2PROVIDENCE VOR/DME115.6014W
BAFr127/32.0BARNES VORTAC113.0014W
GDMr194/35.4GARDNER VOR/DME110.6014W
GONr014/37.5GROTON VOR/DME110.8514W

Airport Services

Parking: tiedowns
Airframe service: NONE
Powerplant service: NONE

Runway Information

Runway 17/35

Dimensions: 1756 x 60 ft. / 535 x 18 m
Surface: asphalt, in good condition
Runway edge lights: non-standard
NON-STD LGT NOT L-800 SERIES.
Runway edge markings: NON-STD MARKINGS: RWY NR AND CNTRLN.
Operational restrictions: NOT PLOWED WINTER; NO SKI OPNS.
RUNWAY 17  RUNWAY 35
Latitude: 41-57.467930N41-57.216732N
Longitude: 072-03.356710W072-03.164962W
Elevation: 771.5 ft.756.1 ft.
Traffic pattern: leftleft
Markings: NSTD, in fair conditionNSTD, in fair condition
Obstructions: 28 ft. trees, 327 ft. from runway, 158 ft. both sides of centerline, 4:1 slope to clear
RWY 17 +6 FT BRUSH 50 FT FM THR, 40 FT L.
28 ft. trees, 201 ft. from runway, 20 ft. right of centerline, 1:1 slope to clear
+6 FT BUSH 20 FT FM THR, 15 FT L; +15 FT BRUSH 5 FT FM THR, 28 FT R.

Airport Ownership and Management from official FAA records

Ownership: Privately-owned
Owner: ROLAND J. TOUTANT
80 BUNGAY ROAD
WEST WOODSTOCK, CT 06281
Phone 860-974-2099
Manager: ROLAND J. TOUTANT
80 BUNGAY ROAD
WEST WOODSTOCK, CT 06281
Phone 860-974-2099

Airport Operational Statistics

Aircraft based on the field: 4
Single engine airplanes: 1
Helicopters: 2
Ultralights: 1
    
Aircraft operations: 200/year *
60% transient general aviation
40% local general aviation
* for 12-month period ending 31 March 2015

Additional Remarks

BE ALERT FOR BACK TAX ACFT ON RWY.
FOR CD CTC YANKEE APCH AT 860-386-3597

Instrument Procedures

There are no published instrument procedures at C44.

Some nearby airports with instrument procedures:

3B0 - Southbridge Municipal Airport (9 nm N)
KLZD - Danielson Airport (11 nm SE)
KIJD - Windham Airport (14 nm SW)
KORH - Worcester Regional Airport (20 nm NE)
KSFZ - North Central State Airport (25 nm E)
 
Loc | Ops | Rwys | IFR | FBO | Links
Com | Nav | Svcs | Stats | Notes

Silver City Flying Club
 
Area around C44 (Toutant Airport)
 
Road maps at: MapQuest Bing Google
 
Aerial photo
WARNING: Photo may not be current or correct
Aerial photo of C44 (Toutant Airport)
Photo by Graeme J W Smith
Photo taken 06-Nov-2011
looking north.

Do you have a better or more recent aerial photo of Toutant Airport that you would like to share? If so, please send us your photo.

 
Sectional chart

 
Airport distance calculator
Flying to Toutant Airport? Find the distance to fly.

From to C44

Sunrise and sunset
Times for 01-Mar-2021
 Local
(UTC-5)
 Zulu
(UTC)
Morning civil twilight05:5610:56
Sunrise06:2411:24
Sunset17:3722:37
Evening civil twilight18:0523:05

Current date and time
Zulu (UTC)  02-Mar-2021 04:58:42
Local (UTC-5)  01-Mar-2021 23:58:42
 
METAR
KIJD 
14nm SW 
020352Z AUTO 31023G38KT 9SM FEW028 SCT040 BKN049 M03/M09 A2976 RMK AO2 PK WND 30038/0350 WSHFT 0259 SNB04E25 SLP078 P0000 T10281089
KORH 
20nm NE 
020354Z AUTO 28031G46KT 10SM FEW050 M04/M17 A2962 RMK AO2 PK WND 29050/0322 SLP041 T10441167
KSFZ 
25nm E 
020356Z AUTO 29023G31KT 10SM SCT050 SCT065 M02/M11 A2967 RMK AO2 PK WND 29038/0318 SNB0259E13 SLP998 P0000 T10221111 FZRANO $
KCEF 
25nm NW 
020355Z 29022G41KT 10SM FEW044 SCT055 M04/M15 A2975 RMK AO2A PK WND 31046/02 SLP083 P0000 T10411151
TAF
KCEF 
25nm NW 
012241Z 0122/0302 30020G35KT 9999 FEW040 SCT130 530006 QNH2964INS TEMPO 0122/0205 33035G50KT 2400 -SHSN SCT020 BKN040 610405 570006 BECMG 0204/0205 33030G40KT 9999 FEW050 530006 QNH2977INS BECMG 0215/0216 31015G25KT 9999 FEW050 520006 QNH2999INS TEMPO 0216/0223 31025G35KT 530006 BECMG 0222/0223 29015G25KT 9999 FEW050 FEW100 520004 QNH3001INS TX02/0122Z TNM08/0211Z
NOTAMs
Click for the latest NOTAMs
NOTAMs are issued by the DoD/FAA and will open in a separate window not controlled by AirNav.

 

 
 

Would you like to see your business listed on this page?

 If your business provides an interesting product or service to pilots, flight crews, aircraft, or users of the Toutant Airport, you should consider listing it here.  To start the listing process, click on the button below
 
Add a business
 

Other Pages about Toutant Airport

Update a link
 
Copyright © AirNav, LLC. All rights reserved. Privacy Policy  Contact